Simultaneous Nadir Overpasses (SNOs) Predictions

Prediction of SNOs between GOES-16 and LANDSAT-8 Satellite Orbit:

Table of predicted SNOs for the next 14.0 days since TLE Epoch: 9/30/2023
Index Date Time (GOES-16) GOES-16 Lat,Lon LANDSAT-8 Lat,Lon Distance(km) Time Diff (sec)
1 09/30/2023 03:00:14 0.06, -75.20 0.79, -71.73 394.34 80
2 09/30/2023 15:18:50 -0.06, -75.22 0.29, -76.89 189.90 80
3 10/02/2023 15:09:19 -0.06, -75.23 -0.36, -73.94 147.78 80
4 10/03/2023 03:30:42 0.06, -75.22 -0.76, -79.13 443.92 80
5 10/04/2023 14:57:07 -0.05, -75.25 -0.97, -70.97 485.93 80
6 10/05/2023 03:18:31 0.05, -75.23 -0.14, -76.16 105.59 80
7 10/07/2023 03:03:39 0.05, -75.25 0.49, -73.20 233.45 80
8 10/07/2023 15:24:53 -0.05, -75.28 0.62, -78.35 350.28 80
9 10/09/2023 15:12:41 -0.04, -75.30 -0.04, -75.40 10.24 80
10 10/11/2023 15:00:29 -0.04, -75.34 -0.66, -72.43 330.97 80
11 10/12/2023 03:24:32 0.04, -75.34 -0.43, -77.62 259.60 80
